Syracuse Hancock International Airport
KSYR : now visible

Airfield :











YOU CAN JOIN US ON...

 
LOGIN :

Register | Disclaimer

   EN    FR    IT 

 









Legend :    VFR   Marginal VFR   IFR   Intensive IFR   Very Intensive IFR
Visi :
Ceiling :
>= 8 km
>= 3000ft
5 to 8 km
1000 to 3000 ft
1500m to 5 km
500 to 1000 ft
800 to 1500m
200 to 500 ft
< 800m
< 200 ft
Symbols :   Thunderstorms  Fog  Heavy snow  Heavy precipitations  Wind > 20 kt






- Airport Elevation : 421 ft
- IATA code : SYR


KSYR - Syracuse Hancock International

CURRENT METAR :
  • 161854Z 07007KT 10SM FEW042 23/16 A3023 RMK AO2 SLP232 T02330156

EXPIRED METARs :
  • 161754Z VRB04KT 10SM FEW036 24/15 A3024 RMK AO2 SLP234 T02390150 10244 20161 58006
  • 161654Z 06003KT 10SM FEW027 FEW250 23/15 A3025 RMK AO2 SLP239 T02330150

TAF KSYR
Valid from the 16 at 18:00 until the 17 at 18:00 UTC


161739Z 1618/1718 09003KT P6SM FEW040 SCT200
FM170200 10004KT P6SM SCT050
KZBW FIR / North America



MET'MAP, your aeronautical weather chart ! - Copyright ORBIFLY December 2007 - Disclaimer

ORBIFLY MET'MAP TEAM :

Programming & Development : Alexandra Zaïnal
Concept & original design : Baudouin d'Aumeries
Assistance for programming : Marc-Olivier Méhu
Technical & hardware support : Manuel Goepfert

Contact : metmap@orbifly.com




SOURCES & CREDITS :

   NOAA       Earth
Advisory